Other Public Products
Issued by NWS Grand Forks, ND

Home | Current Version | Previous Version | Text Only | Print | Product List | Glossary Off
Versions: 1 2 3 4 5 6 7 8 9 10 11 12 13 14 15 16 17 18 19 20 21 22 23 24 25 26 27 28 29 30 31 32 33 34 35 36 37 38 39 40 41 42 43 44 45 46 47 48 49 50

000
FPUS83 KFGF 290931
OPUFGF
PRAIRIE TO PINES WEATHER ROUNDUP
NATIONAL WEATHER SERVICE EASTERN NORTH DAKOTA/GRAND FORKS ND
400 AM CDT FRI MAY 29 2015

 **SATELLITE DATA USED TO AUGMENT SKY COVER AT AUTOMATED STATIONS**
 *****  WEATHER ACROSS EASTERN NORTH DAKOTA  *****

CITY           SKY/WX    TMP DP  RH WIND       PRES   REMARKS
GRAND FORKS    CLOUDY    50  46  86 N30G38    29.95R
GRAND FORKS AF CLOUDY    50  46  87 N18G28    29.96R
GRAND CITY NWS   N/A     48 N/A N/A VRB30       N/A
BUXTON           N/A     51  50  98 NW20G35     N/A
DEVILS LAKE    CLOUDY    48  39  71 N24G32    30.03R
FARGO          LGT RAIN  60  57  89 N24G33    29.88R
WAHPETON ARPT  CLOUDY    59  55  88 W3        29.87R
$$

 *****  WEATHER ACROSS CENTRAL AND WESTERN NORTH DAKOTA  *****

CITY           SKY/WX    TMP DP  RH WIND       PRES   REMARKS
JAMESTOWN      CLOUDY    55  51  86 N26       29.95R
BISMARCK       CLOUDY    52  47  83 N23G31    30.04R
MINOT          CLOUDY    47  38  71 N21G30    30.11R
MINOT AFB      CLOUDY    48  46  93 N21       30.12R
GARRISON         N/A     50  42  74 N14G25    30.10R
WILLISTON      CLOUDY    46  34  62 N15       30.23R
DICKINSON      CLOUDY    47  44  90 N18G25    30.12R
HETTINGER      CLOUDY    49  46  90 N20G32    30.08R
$$

 *****  OTHER OBSERVATIONS NORTHEAST NORTH DAKOTA  *****

CITY           SKY/WX    TMP DP  RH WIND       PRES   REMARKS
WALHALLA       FAIR      46  46 100 MISG      30.07R
LANGDON        CLOUDY    46  43  87 N21G28    30.05R
CAVALIER       NOT AVBL
GRAFTON        CLOUDY    48  48 100 N24G36    29.99R
CANDO          CLOUDY    46  41  81 N21G30    30.07R
FORT TOTTEN      N/A     49  45  85 N9        29.95S
ROLLA          CLOUDY    43  43 100 N25G31    30.09S
RUGBY          NOT AVBL
 ***** THE ABOVE OBSERVATIONS ARE NON NWS ARE NOT QUALITY
        CONTROLLED AND MAY MIS-REPORT RAIN FOR SNOW...
$$

 *****  OTHER OBSERVATIONS SOUTHEAST NORTH DAKOTA *****

CITY           SKY/WX    TMP DP  RH WIND       PRES   REMARKS
COOPERSTOWN    NOT AVBL
VALLEY CITY    CLOUDY    55  55 100 N16G28    29.94R
OAKES          HVY RAIN  59  59 100 N18       29.89R
GWINNER        NOT AVBL
BUFFALO        NOT AVBL
WYNDMERE       NOT AVBL
 ***** THE ABOVE OBSERVATIONS ARE NON NWS ARE NOT QUALITY
       CONTROLLED AND MAY MIS-REPORT RAIN FOR SNOW...
$$

  *****  WEATHER ACROSS NORTHERN MINNESOTA  *****

CITY           SKY/WX    TMP DP  RH WIND       PRES   REMARKS
FLAG ISLAND    CLOUDY    54  52  94 NW23      29.89R
WARROAD        CLOUDY    52  48  87 NW13      29.91R
ROSEAU         CLOUDY    52  46  82 NW15G25   29.92R
HALLOCK        CLOUDY    48  45  87 N22G31    29.98R
THF RVR FALLS  CLOUDY    55  52  88 N24       29.90R
HALSTAD          N/A     53  52  94 N29         N/A
FOSSTON        DRIZZLE   57  55  94 N17G23    29.87R
BAUDETTE       CLOUDY    57  54  89 N16G22    29.86R
WASKISH        HVY RAIN  61  61 100 W12       29.84R
CROOKSTON      CLOUDY    52  50  93 N25G32    29.92R
$$
  *****  WEATHER ACROSS CENTRAL AND WEST MINNESOTA  *****

CITY           SKY/WX    TMP DP  RH WIND       PRES   REMARKS
BEMIDJI        CLOUDY    58  57  97 W3        29.84F
PARK RAPIDS    CLOUDY    59  57  93 W6        29.85R
WADENA         CLOUDY    59  57  94 CALM      29.86R
DETROIT LAKES  CLOUDY    59  59 100 W3        29.87S
MOORHEAD       LGT RAIN  61  57  88 N16       29.88R
FERGUS FALLS   LGT RAIN  61  61 100 CALM      29.85S
ELBOW LAKE     LGT RAIN  60  59  98 N6        29.85R
MORRIS MN      CLOUDY    61  61 100 SW3       29.84R
STAPLES        CLOUDY    59  57  94 CALM      29.86R
WHEATON        CLOUDY    59  57  94 N3        29.88R
$$
  *****  WEATHER ELSEWHERE ACROSS MINNESOTA  *****

CITY           SKY/WX    TMP DP  RH WIND       PRES   REMARKS
DULUTH         MOCLDY    53  48  83 S6        29.87F
INTRNTL FALLS  CLOUDY    59  58  96 SW5       29.82F
ELY            NOT AVBL
CLOQUET        MOCLDY    45  43  93 E5        29.86F
BRAINERD       CLOUDY    61  57  87 CALM      29.83F
HIBBING        CLOUDY    51  48  89 SE3       29.84F
ALEXANDRIA     MOCLDY    60  57  89 CALM      29.86R
SAINT CLOUD    MOCLDY    63  60  90 S6        29.86F
MINNEAPOLIS    LGT RAIN  64  62  93 SE13      29.86F
$$

  *****  WEATHER ACROSS SOUTH DAKOTA  *****

CITY           SKY/WX    TMP DP  RH WIND       PRES   REMARKS
SIOUX FALLS    CLOUDY    64  63  96 S3        29.83F
BROOKINGS      CLOUDY    61  57  88 E13       29.85F THUNDER
WATERTOWN      MOCLDY    60  57  89 CALM      29.85S
HURON            N/A    N/A N/A N/A MISG      29.82S
SISSETON         N/A     60  60 100 W5        29.84R
ABERDEEN       CLOUDY    61  60  97 NW7       29.87R
MITCHELL       CLOUDY    63  59  87 N13       29.79F
PIERRE         TSTM      60  59  96 NW21G31   29.89R FOG
MOBRIDGE       CLOUDY    60  57  89 N18G32    29.92R
RAPID CITY     CLOUDY    56  52  86 NW21G29   30.04R
$$

  *****  SOME WEATHER IN NEARBY STATES *****

CITY           SKY/WX    TMP DP  RH WIND       PRES   REMARKS
GLASGOW MT     CLEAR     38  34  85 NE7       30.28R
GREAT FALLS MT CLOUDY    45  44  97 N5        30.31S FOG
CHEYENNE WY    CLOUDY    48  41  76 W7        30.16S
SCOTTSBLUFF NE PTCLDY    50  48  93 NW6       30.06F
OMAHA NE       CLOUDY    66  63  90 SE10      29.88F
DES MOINES IA  PTCLDY    63  60  90 S5        29.93F
DAVENPORT IA   CLOUDY    66  61  84 SE6       29.98F
CHICAGO IL     CLOUDY    66  59  78 S3        30.03F
EAU CLAIRE WI  CLOUDY    63  59  87 SE6       29.92F
LA CROSSE WI   CLOUDY    65  61  87 SE5       29.94F
$$

  *****  SOME NATIONAL WEATHER *****

CITY           SKY/WX    TMP DP  RH WIND       PRES   REMARKS
LA GUARDIA NY  CLEAR     65  53  65 NE6       30.25S
RALEIGH NC     PTCLDY    69  65  86 S3        30.20S
ATLANTA GA     MOCLDY    68  64  88 E3        30.17R
NEW ORLEANS LA PTCLDY    75  71  87 SE5       30.03S
OKLAHOMA CITY  CLOUDY    65  62  90 SE6       29.92S
ALBUQUERQUE NM CLEAR     64  32  30 N10       30.09S
SALT LAKE CITY CLEAR     55  44  66 SE6       30.15S
LOS ANGELES CA CLOUDY    59  56  89 W5        29.96S
BOISE ID       CLEAR     62  47  57 SE8       30.07R
SEATTLE WA     PTCLDY    64  53  67 E6        29.99F
$$

*** WEATHER ACROSS MANITOBA...SASKATCHEWAN AND ONTARIO ***
                ***ONTARIO***

CITY           SKY/WX    TMP DP  RH WIND       PRES   REMARKS
GERALDTON      MOCLDY    52  50  93 S6        29.87F
THUNDER BAY    MOCLDY    46  45  93 NE3       29.87F
SIOUX LOOKOUT  LGT RAIN  55  55 100 N9G17     29.82S FOG
TORONTO        PTCLDY    61  52  72 E2        30.24S
BIG TROUT LK   MIX PCPN  34  34 100 NE10G18   29.96F FOG
PICKLE LAKE    NOT AVBL
DRYDEN         CLOUDY    55  54  94 N8G18     29.84
KENORA         LGT RAIN  52  52 100 NW13G25   29.88R
$$
                *** MANITOBA***

CITY           SKY/WX    TMP DP  RH WIND       PRES   REMARKS
BRANDON        CLOUDY    46  36  66 N18       30.15R
DAUPHIN        MOCLDY    41  37  87 N13G20    30.21S
ISLAND LAKE    NOT AVBL
PILOT MOUND      N/A     45  41  87 N20G25      N/A
THE PAS        PTCLDY    34  27  75 N13G18    30.31R WCI  25
THOMPSON       LGT SNOW  28  25  86 N16G22    30.29R WCI  17
WINNIPEG       MOCLDY    41  37  87 N22G31    30.06R
LYNN LAKE      PTCLDY    25  23  93 N7        30.37R WCI  17
CHURCHILL      FLURRIES  27  19  74 NE12      30.40S WCI  16
GILLAM         SNOW      25  23  93 NE16G25   30.26S VSB 1/2 WCI  12
$$
                ***SASKATCHEWAN***

CITY           SKY/WX    TMP DP  RH WIND       PRES   REMARKS
ESTEVAN        CLOUDY    43  34  70 N12G20    30.24R
KINDERSLEY     PTCLDY    36  32  87 NE8       30.34R
LLOYDMINSTER   CLEAR     36  27  69 SE5       30.35S
PRINCE ALBERT  PTCLDY    34  25  69 NE6       30.38R
REGINA         CLOUDY    41  30  65 NE10G17   30.32R
YORKTON        CLOUDY    39  32  75 N15G21    30.28R



USA.gov is the U.S. government's official web portal to all federal, state and local government web resources and services.